Showing default

COSMOS 252, 3530

Orbit data source: Space-Track

COSMOS 252, 3530 is a payload satellite owned by PKO (CIS) in LEO that was launched on Fri, 01 Nov 1968 UTC via a TSIKLON-2A launch vehicle from the Tyuratam Missile And Space Complex (TTMTR). Payload-class satellites include a variety of spacecraft equipped with specific instruments for various scientific and technological missions. These include communications satellites like Starlink; space stations such as the ISS; scientific satellites like the Hubble; Earth observation satellites from companies like Planet Labs, Umbra, and HawkEye 360; GPS; miniature CubeSats for education and research; and military/defense satellites.

Loading next visibility...
Identifier
3530, 1968-097A
Orbit
LEO
Country
Flag of CISCIS
Related business
Manufacturer
TSKBM/KB1
Mission
Spacecraft
Bus & Motor
IS, Unknown motor
Mass
1,400 kg wet, ~1,400 kg dry
Launch date (UTC)
1968-11-01 (58 years ago)
Launch vehicle
TSIKLON-2A
Launch site
Tyuratam Missile And Space Complex (TTMTR)
Object type
Payload
Rocket body
Debris
Shape & HBR
Unknown
Radar Cross Section
Large (>1 m²)

Expand to show TLE details & history
Last TLE update: 15 hours ago

TLE from 15 hours ago
0 COSMOS 252
1 03530U 68097A   26178.21803163  .00000163  00000-0  97599-4 0  9992
2 03530  62.3169 127.7102 1010732  57.2645 312.1721 12.88302385707240
Epoch: 2026-06-27T05:13Z
TLE epoch observation values (Epoch: 2026-06-27T05:13:57.932Z)
Latitude
-0.00001°
Longitude
133.88346°
Altitude
836.01 km
Speed
7.661 km/s
True Right ascension
08h 30m 50s
True Declination
0° 00' 00"
Sunlit
Object was in daylight at epoch
Visualization orbit readout
Latitude
Unknown
Longitude
Unknown
Altitude
Unknown
Speed
Unknown
Apparent Right ascension
Unknown
Apparent Declination
Unknown
Sunlit
N/A
Visualization observer readout
Local Sidereal Time
07:43:20
Azimuth
Unknown
Elevation
Unknown
Doppler factor
Unknown
Orbital elements
Apogee altitude
2,084.034 km
Perigee altitude
530.461 km
Semi-major axis
7,685.385 km
Eccentricity
0.10107
Inclination
62.3169°
RAAN
127.7102°
Arg. of periapsis
57.2645°
True anomaly
302.8378°
Mean anomaly
312.1721°
Eccentric anomaly
307.58284°
Mean motion
3.2214 °/min
Orbital period
111.75 mins
BSTAR
0.000097599
Loading maneuver chart data...
Computing Atmospheric mass density...

Documentation

Showing up to 5 results
|